Starlink 33886

operational
NORAD ID: 63681 Int'l Des: 2025-085 Owner: SPXS Country: US Constellation: starlink
LEOCIRCULAR

About Starlink 33886

Description loading...

Live Position

Loading 3D Globe...

Upcoming Passes

Altitude History

Altitude vs Time

uPlot chart will show altitude changes over time

Two-Line Element Set

1 63681U 25085T 26102.74256072 .00014427 00000-0 53256-3 0 9990
2 63681 42.9986 198.0993 0001634 260.5327 99.5340 15.27592031 54084
Epoch: Apr 12, 2026 • Age: 12 hours

Current Status

Altitude 483.1 km
Velocity 7.63 km/s
Sub-Earth Point 23.06°N, 65.36°E
Launch Date Apr 28, 2025
Age 0.9 years
Type internet

Technical Details

Classification Payload
Mass 575.00 kg
Dry Mass 530.00 kg
Total Mass 575.00 kg
Length 0.30 m
Diameter 4.10 m
Span 29.00 m
Shape Box + pan
Manufacturer SPXS
Bus Type Starlink V2MO
Phase Status In Orbit
Owner/State SPXS/US

Large Constellations

Loading constellations...